This demonstration page uses our WeatherBlox Daily Observations layout. Learn more.

38.80484, -77.04692

Hourly Observations for November 23, 2020

Temp ( °F °C ) Dew Point ( °F °C ) Humidity (%) Winds ( mph kmh ) Pressure ( in mb ) Visibility ( mi km ) Precip ( " mm )
12:52 am 00:52 Cloudy 57 13.9 54 12.2 90 90 S 9 15 30 1016 10 16.0934 0.001 0.001
1:11 am 01:11 Cloudy with Light Rain 57 13.9 55 12.8 93 93 S 9 15 29.99 1016 6 9.65604 0.01 0.254
1:52 am 01:52 Cloudy with Drizzle 57 13.9 55 12.8 93 93 S 9 15 29.97 1015 9 14.48406 0.01 0.254
2:52 am 02:52 Cloudy with Drizzle 56 13.3 55 12.8 97 97 SSE 7 11 29.96 1015 5 8.0467 0.001 0.001
3:52 am 03:52 Cloudy 56 13.3 55 12.8 97 97 SSW 5 7 29.96 1014 7 11.26538 0.01 0.254
4:04 am 04:04 Cloudy 57 13.9 56 13.3 96 96 W 5 7 29.96 1015 7 11.26538 0 0
4:30 am 04:30 Cloudy with Light Rain 59 15 54 12.2 83 83 WNW 16 26 29.96 1015 10 16.0934 0.001 0.001
4:52 am 04:52 Cloudy 58 14.4 51 10.6 78 78 WNW 10 17 29.95 1014 10 16.0934 0.001 0.001
5:52 am 05:52 Cloudy 58 14.4 50 10 75 75 NW 12 19 29.95 1014 10 16.0934 0 0
6:52 am 06:52 Cloudy 55 12.8 47 8.3 74 74 NW 20 31 29.99 1016 10 16.0934 0 0
7:52 am 07:52 Mostly Cloudy 51 10.6 40 4.4 66 66 NW 25 41 30.04 1017 10 16.0934 0 0
8:52 am 08:52 Partly Cloudy 51 10.6 37 2.8 59 59 NW 20 31 30.09 1019 10 16.0934 0 0
9:52 am 09:52 Mostly Sunny 50 10 33 0.6 52 52 NW 22 35 30.13 1020 10 16.0934 0 0
10:52 am 10:52 Mostly Sunny 51 10.6 32 0 48 48 NNW 23 37 30.14 1021 10 16.0934 0 0
11:52 am 11:52 Mostly Sunny 52 11.1 32 0 47 47 NNW 25 41 30.13 1020 10 16.0934 0 0
12:52 pm 12:52 Mostly Sunny 52 11.1 30 -1.1 43 43 NW 18 30 30.11 1020 10 16.0934 0 0
1:52 pm 13:52 Mostly Sunny 53 11.7 27 -2.8 37 37 NW 22 35 30.11 1020 10 16.0934 0 0
2:52 pm 14:52 Partly Cloudy 51 10.6 28 -2.2 41 41 NW 25 41 30.14 1021 10 16.0934 0 0
3:52 pm 15:52 Partly Cloudy 50 10 28 -2.2 43 43 NW 22 35 30.17 1022 10 16.0934 0 0
4:52 pm 16:52 Mostly Clear 48 8.9 28 -2.2 46 46 NW 14 22 30.2 1023 10 16.0934 0 0
5:52 pm 17:52 Partly Cloudy 47 8.3 28 -2.2 48 48 NW 15 24 30.24 1024 10 16.0934 0 0
6:52 pm 18:52 Cloudy 48 8.9 28 -2.2 46 46 NNW 14 22 30.25 1025 10 16.0934 0 0
7:52 pm 19:52 Partly Cloudy 46 7.8 28 -2.2 50 50 NW 7 11 30.26 1025 10 16.0934 0 0
8:52 pm 20:52 Cloudy 47 8.3 28 -2.2 48 48 NW 7 11 30.27 1025 10 16.0934 0 0
9:52 pm 21:52 Mostly Cloudy 46 7.8 27 -2.8 47 47 NW 10 17 30.28 1025 10 16.0934 0 0
10:52 pm 22:52 Mostly Cloudy 46 7.8 27 -2.8 47 47 WNW 7 11 30.29 1026 10 16.0934 0 0
11:52 pm 23:52 Mostly Cloudy 45 7.2 26 -3.3 48 48 WNW 9 15 30.3 1026 10 16.0934 0 0

Powered by AerisWeather